• en France
  • Liste des pays
  • À 7 jours
  • Température de l'eau
  • Carte satellitaire
  • Carte météo
  • Widgets météo
  • user-avatar
    Se connecter

    Météo par heure à Prutz

    Ce jour, 17 Octobre, Mercredi

    Heure Température Précipitation Vent Pression Humidité
    00:00 +7°C° 0 mm 1 m/s 635 mmHg 82%
    01:00 +6°C° 0 mm 2 m/s 635 mmHg 82%
    02:00 +6°C° 0 mm 2 m/s 635 mmHg 82%
    03:00 +6°C° 0 mm 1 m/s 635 mmHg 83%
    04:00 +6°C° 0 mm 1 m/s 635 mmHg 83%
    05:00 +6°C° 0 mm 1 m/s 635 mmHg 83%
    06:00 +6°C° 0 mm 1 m/s 635 mmHg 82%
    07:00 +7°C° 0 mm 1 m/s 635 mmHg 79%
    08:00 +9°C° 0 mm 1 m/s 636 mmHg 70%
    09:00 +11°C° 0 mm 1 m/s 636 mmHg 61%
    10:00 +13°C° 0 mm 0 m/s 637 mmHg 51%
    11:00 +15°C° 0 mm 1 m/s 637 mmHg 49%
    12:00 +15°C° 0 mm 1 m/s 637 mmHg 46%
    13:00 +16°C° 0 mm 1 m/s 637 mmHg 44%
    14:00 +15°C° 0 mm 1 m/s 637 mmHg 48%
    15:00 +15°C° 0 mm 1 m/s 636 mmHg 52%
    16:00 +14°C° 0 mm 1 m/s 636 mmHg 56%
    17:00 +12°C° 0 mm 1 m/s 635 mmHg 66%
    18:00 +10°C° 0 mm 1 m/s 635 mmHg 76%
    19:00 +8°C° 0 mm 1 m/s 634 mmHg 86%
    20:00 +7°C° 0 mm 1 m/s 634 mmHg 86%
    21:00 +7°C° 0 mm 1 m/s 634 mmHg 85%
    22:00 +7°C° 0 mm 1 m/s 634 mmHg 85%
    23:00 +7°C° 0 mm 1 m/s 634 mmHg 84%

    Demain, 18 Octobre, Jeudi

    Heure Température Précipitation Vent Pression Humidité
    00:00 +7°C° 0 mm 1 m/s 634 mmHg 84%
    01:00 +7°C° 0 mm 1 m/s 634 mmHg 84%
    02:00 +7°C° 0 mm 1 m/s 634 mmHg 83%
    03:00 +6°C° 0 mm 1 m/s 634 mmHg 83%
    04:00 +6°C° 0 mm 1 m/s 633 mmHg 83%
    05:00 +6°C° 0 mm 1 m/s 633 mmHg 83%
    06:00 +6°C° 0 mm 1 m/s 633 mmHg 82%
    07:00 +6°C° 0 mm 1 m/s 634 mmHg 82%
    08:00 +8°C° 0 mm 1 m/s 634 mmHg 73%
    09:00 +11°C° 0 mm 1 m/s 635 mmHg 65%
    10:00 +13°C° 0 mm 1 m/s 636 mmHg 56%
    11:00 +14°C° 0 mm 1 m/s 636 mmHg 55%
    12:00 +14°C° 0 mm 1 m/s 636 mmHg 53%
    13:00 +15°C° 0 mm 2 m/s 636 mmHg 51%
    14:00 +15°C° 0 mm 2 m/s 636 mmHg 55%
    15:00 +14°C° 0 mm 2 m/s 636 mmHg 59%
    16:00 +13°C° 0 mm 2 m/s 635 mmHg 62%
    17:00 +11°C° 0 mm 1 m/s 635 mmHg 72%
    18:00 +9°C° 0 mm 1 m/s 634 mmHg 81%
    19:00 +7°C° 0 mm 1 m/s 634 mmHg 90%
    20:00 +7°C° 0 mm 1 m/s 634 mmHg 90%
    21:00 +7°C° 0 mm 1 m/s 634 mmHg 91%
    22:00 +7°C° 0 mm 1 m/s 634 mmHg 91%
    23:00 +7°C° 0 mm 1 m/s 634 mmHg 90%

    Après-demain, 19 Octobre, Vendredi

    Heure Température Précipitation Vent Pression Humidité
    00:00 +6°C° 0 mm 1 m/s 634 mmHg 89%
    01:00 +6°C° 0 mm 1 m/s 634 mmHg 88%
    02:00 +6°C° 0 mm 1 m/s 634 mmHg 87%
    03:00 +6°C° 0 mm 1 m/s 634 mmHg 86%
    04:00 +6°C° 0 mm 1 m/s 634 mmHg 85%
    05:00 +6°C° 0 mm 1 m/s 634 mmHg 84%
    06:00 +6°C° 0 mm 1 m/s 634 mmHg 84%
    07:00 +6°C° 0 mm 1 m/s 634 mmHg 83%
    08:00 +8°C° 0 mm 1 m/s 636 mmHg 71%
    09:00 +11°C° 0 mm 1 m/s 637 mmHg 59%
    10:00 +14°C° 0 mm 1 m/s 638 mmHg 47%
    11:00 +14°C° 0 mm 1 m/s 638 mmHg 44%
    12:00 +15°C° 0 mm 1 m/s 638 mmHg 42%
    13:00 +16°C° 0 mm 1 m/s 638 mmHg 39%
    14:00 +15°C° 0 mm 1 m/s 638 mmHg 45%
    15:00 +14°C° 0 mm 2 m/s 638 mmHg 50%
    16:00 +14°C° 0 mm 2 m/s 638 mmHg 56%
    17:00 +11°C° 0 mm 1 m/s 637 mmHg 67%
    18:00 +9°C° 0 mm 1 m/s 637 mmHg 78%
    19:00 +7°C° 0 mm 1 m/s 636 mmHg 89%
    20:00 +6°C° 0 mm 1 m/s 636 mmHg 88%
    21:00 +6°C° 0 mm 1 m/s 637 mmHg 87%
    22:00 +6°C° 0 mm 1 m/s 637 mmHg 87%
    23:00 +5°C° 0 mm 0 m/s 637 mmHg 86%

    20 Octobre, Samedi

    Heure Température Précipitation Vent Pression Humidité
    00:00 +5°C° 0 mm 0 m/s 637 mmHg 85%
    01:00 +5°C° 0 mm 0 m/s 637 mmHg 84%
    02:00 +6°C° 0 mm 1 m/s 637 mmHg 84%
    03:00 +5°C° 0 mm 1 m/s 637 mmHg 83%
    04:00 +5°C° 0 mm 1 m/s 637 mmHg 83%
    05:00 +5°C° 0 mm 1 m/s 637 mmHg 82%
    06:00 +5°C° 0 mm 1 m/s 637 mmHg 82%
    07:00 +5°C° 0 mm 1 m/s 638 mmHg 81%
    08:00 +7°C° 0 mm 1 m/s 639 mmHg 71%
    09:00 +10°C° 0 mm 1 m/s 640 mmHg 61%
    10:00 +12°C° 0 mm 1 m/s 641 mmHg 51%
    11:00 +13°C° 0 mm 1 m/s 641 mmHg 48%
    12:00 +14°C° 0 mm 2 m/s 641 mmHg 45%
    13:00 +15°C° 0 mm 2 m/s 641 mmHg 41%
    14:00 +14°C° 0 mm 2 m/s 641 mmHg 47%
    15:00 +13°C° 0 mm 2 m/s 641 mmHg 52%
    16:00 +12°C° 0 mm 2 m/s 640 mmHg 57%
    17:00 +9°C° 0 mm 2 m/s 640 mmHg 68%
    18:00 +8°C° 0 mm 1 m/s 639 mmHg 78%
    19:00 +6°C° 0 mm 1 m/s 639 mmHg 89%
    20:00 +6°C° 0 mm 1 m/s 639 mmHg 88%
    21:00 +5°C° 0 mm 1 m/s 639 mmHg 88%
    22:00 +5°C° 0 mm 1 m/s 639 mmHg 87%
    23:00 +5°C° 0 mm 1 m/s 639 mmHg 83%

    21 Octobre, Dimanche

    Heure Température Précipitation Vent Pression Humidité
    00:00 +5°C° 0 mm 1 m/s 639 mmHg 80%
    01:00 +4°C° 0 mm 1 m/s 639 mmHg 76%
    02:00 +4°C° 0 mm 1 m/s 639 mmHg 72%
    03:00 +4°C° 0 mm 1 m/s 639 mmHg 67%
    04:00 +4°C° 0 mm 1 m/s 639 mmHg 63%
    05:00 +4°C° 0 mm 1 m/s 639 mmHg 59%
    06:00 +4°C° 0 mm 1 m/s 639 mmHg 55%
    07:00 +4°C° 0 mm 1 m/s 639 mmHg 51%
    08:00 +7°C° 0 mm 1 m/s 640 mmHg 42%
    09:00 +10°C° 0 mm 1 m/s 641 mmHg 34%
    10:00 +12°C° 0 mm 0 m/s 642 mmHg 25%
    11:00 +14°C° 0 mm 1 m/s 642 mmHg 25%
    12:00 +15°C° 0 mm 1 m/s 642 mmHg 25%
    13:00 +16°C° 0 mm 1 m/s 642 mmHg 24%
    14:00 +15°C° 0 mm 1 m/s 641 mmHg 32%
    15:00 +14°C° 0 mm 1 m/s 640 mmHg 39%
    16:00 +13°C° 0 mm 2 m/s 640 mmHg 47%
    17:00 +11°C° 0 mm 1 m/s 639 mmHg 56%
    18:00 +8°C° 0 mm 1 m/s 638 mmHg 65%
    19:00 +6°C° 0 mm 1 m/s 638 mmHg 73%
    20:00 +6°C° 0 mm 1 m/s 638 mmHg 69%
    21:00 +6°C° 0 mm 1 m/s 638 mmHg 66%
    22:00 +6°C° 0 mm 1 m/s 638 mmHg 62%
    23:00 +6°C° 0 mm 1 m/s 638 mmHg 59%

    22 Octobre, Lundi

    Heure Température Précipitation Vent Pression Humidité
    00:00 +5°C° 0 mm 1 m/s 638 mmHg 55%
    01:00 +5°C° 0 mm 1 m/s 637 mmHg 52%
    02:00 +5°C° 0 mm 1 m/s 637 mmHg 51%
    03:00 +5°C° 0 mm 1 m/s 637 mmHg 50%
    04:00 +4°C° 0 mm 2 m/s 637 mmHg 49%
    05:00 +4°C° 0 mm 2 m/s 637 mmHg 49%
    06:00 +4°C° 0 mm 2 m/s 637 mmHg 50%
    07:00 +4°C° 0 mm 2 m/s 637 mmHg 50%
    08:00 +6°C° 0 mm 2 m/s 638 mmHg 45%
    09:00 +9°C° 0 mm 2 m/s 639 mmHg 41%
    10:00 +12°C° 0 mm 2 m/s 640 mmHg 37%
    11:00 +13°C° 0 mm 2 m/s 640 mmHg 36%
    12:00 +13°C° 0 mm 2 m/s 640 mmHg 36%
    13:00 +13°C° 0 mm 3 m/s 640 mmHg 36%
    14:00 +12°C° 0 mm 3 m/s 639 mmHg 41%
    15:00 +12°C° 0 mm 2 m/s 639 mmHg 46%
    16:00 +10°C° 0 mm 2 m/s 639 mmHg 51%
    17:00 +8°C° 0 mm 2 m/s 638 mmHg 61%
    18:00 +6°C° 0 mm 2 m/s 638 mmHg 71%
    19:00 +4°C° 0 mm 1 m/s 637 mmHg 81%
    20:00 +4°C° 0 mm 1 m/s 637 mmHg 81%
    21:00 +4°C° 0 mm 1 m/s 637 mmHg 80%
    22:00 +4°C° 0 mm 1 m/s 637 mmHg 80%
    23:00 +3°C° 0 mm 1 m/s 637 mmHg 78%
    Voir plus